Tracking 29090 objects as of 15-Jul-2024
HD Live streaming from Space Station
objects crossing your sky now

EDUSAT

Track EDUSAT now!
10-day predictions
EDUSAT is classified as:


NORAD ID: 37788
Int'l Code: 2011-044A
Perigee: 631.4 km
Apogee: 681.8 km
Inclination: 98.4 °
Period: 97.7 minutes
Semi major axis: 7027 km
RCS: 0.1421 m2 (medium)
Launch date: August 17, 2011
Source: Italy (IT)
Launch site: Orenburg, Russia (OREN)

EduSat is a microsatellite built by the University of Rome.
Your satellite tracking list
Your tracking list is empty




NASA's NSSDC Master Catalog

Two Line Element Set (TLE):
1 37788U 11044A   24197.51597473  .00001750  00000-0  27425-3 0  9993
2 37788  98.3601  65.1077 0035926 194.4013 236.0068 14.73642846693069
Source of the keplerian elements: AFSPC